Regional Weather Roundup
Issued by NWS

Home | Current Version | Previous Version | Graphics & Text | Print | Product List | Glossary On
Versions: 1 2 3 4 5 6 7 8 9 10 11 12 13 14 15 16 17 18 19 20 21 22 23 24 25 26 27 28 29 30 31 32 33 34 35 36 37 38 39 40 41 42 43 44 45 46 47 48 49 50
167
ASUS44 KJAN 301203
RWRMS

MISSISSIPPI HOURLY WEATHER ROUNDUP
NATIONAL WEATHER SERVICE JACKSON MS
700 AM CDT TUE SEP 30 2014

NOTE: "FAIR: INDICATES FEW OR NO CLOUDS BELOW 12,000 FEET WITH NO
SIGNIFICANT WEATHER AND/OR OBSTRUCTIONS TO VISIBILITY.

MSZ001>002-007>008-010>013-018>021-025>028-034>036-301300-
NORTHWEST MISSISSIPPI

CITY           SKY/WX    TMP DP  RH WIND       PRES   REMARKS
CLARKSDALE       N/A     59  59 100 N5        29.96R VSB 1/2
CLEVELAND      FAIR      59  59  97 CALM      29.94R
GREENWOOD      CLEAR     60  58  92 CALM      29.93R FOG
6HR MIN TEMP:  60; 6HR MAX TEMP:  64;

GREENVILLE     CLEAR     61  58  90 N5        29.93R
6HR MIN TEMP:  60; 6HR MAX TEMP:  67;

GRENADA        FAIR      59  59 100 NW5       29.94R
OLIVE BRANCH   PTCLDY    59  59 100 CALM      29.95S
OXFORD         FAIR      57  57 100 CALM      29.97R
TUNICA         SUNNY     59  57  94 CALM      29.96R
$$

MSZ003>006-009-014>017-022>024-029>033-037>039-301300-
NORTHEAST MISSISSIPPI

CITY           SKY/WX    TMP DP  RH WIND       PRES   REMARKS
COLUMBUS AFB   FOG       61  61 100 CALM      29.96R VSB 1/4
CORINTH        FOG       55  55 100 CALM      29.96R VSB 3/4
GOLDN TRIANGLE CLEAR     63  57  82 CALM      29.94R
STARKVILLE     FAIR      59  59 100 CALM      29.95R FOG
TUPELO         CLEAR     61  59  93 CALM      29.95R
6HR MIN TEMP:  61; 6HR MAX TEMP:  66;

$$

MSZ040-058-301300-
CENTRAL MISSISSIPPI

CITY           SKY/WX    TMP DP  RH WIND       PRES   REMARKS
JACKSON INTL   CLEAR     64  63  96 CALM      29.92R
6HR MIN TEMP:  64; 6HR MAX TEMP:  69;

JACKSON HAWKNS CLEAR     67  64  90 CALM      29.93R
6HR MIN TEMP:  66; 6HR MAX TEMP:  72;

MERIDIAN KEY   CLEAR     63  61  93 CALM      29.95R
6HR MIN TEMP:  62; 6HR MAX TEMP:  67;

MERIDIAN NAS   FOG       63  62  97 CALM      29.95R VSB 1/2
6HR MIN TEMP:  62; 6HR MAX TEMP:  68;

RAYMOND        FAIR      63  57  82 CALM      29.92S HAZE
VICKSBURG      CLEAR     63  61  93 CALM      29.92R
6HR MIN TEMP:  63; 6HR MAX TEMP:  67;

$$

MSZ059>079-301300-
SOUTH MISSISSIPPI

CITY           SKY/WX    TMP DP  RH WIND       PRES   REMARKS
BROOKHAVEN     FAIR      64  64 100 CALM      29.93S FOG
COLUMBIA       FAIR      64  64 100 CALM      29.90S FOG
HATTIESBURG    MOCLDY    68  66  93 CALM      29.92R FOG
6HR MIN TEMP:  68; 6HR MAX TEMP:  72;

MCCOMB         CLEAR     69  66  90 CALM      29.91R
6HR MIN TEMP:  68; 6HR MAX TEMP:  73;

NATCHEZ        PTCLDY    66  64  94 CALM      29.92R
6HR MIN TEMP:  66; 6HR MAX TEMP:  72;

PINE BELT      CLEAR    N/A N/A N/A CALM      29.93R
$$

MSZ080>082-301300-
COASTAL MISSISSIPPI

CITY           SKY/WX    TMP DP  RH WIND       PRES   REMARKS
BILOXI         CLEAR     71  71 100 NE6       29.90R
6HR MIN TEMP:  71; 6HR MAX TEMP:  74;

PASCAGOULA     CLEAR     69  68  96 CALM      29.90R FOG
6HR MIN TEMP:  68; 6HR MAX TEMP:  71;

GULFPORT       CLEAR     71  69  93 N3        29.90R
6HR MIN TEMP:  70; 6HR MAX TEMP:  75;

$$



USA.gov is the U.S. government's official web portal to all federal, state and local government web resources and services.